Regional Weather Roundup
Issued by NWS

Home | Current Version | Previous Version | Text Only | Print | Product List | Glossary Off
Versions: 1 2 3 4 5 6 7 8 9 10 11 12 13 14 15 16 17 18 19 20 21 22 23 24 25 26 27 28 29 30 31 32 33 34 35 36 37 38 39 40 41 42 43 44 45 46 47 48 49 50

228
ASUS43 KTOP 012208
RWRKS

WEATHER ROUNDUP FOR KANSAS
NATIONAL WEATHER SERVICE GOODLAND KS
500 PM CDT SUN MAY 01 2016

NOTE:  "FAIR" INDICATES FEW OR NO CLOUDS BELOW 12,000 FEET WITH NO
SIGNIFICANT WEATHER AND/OR OBSTRUCTIONS TO VISIBILITY.

KSZ001>006-013>018-027>032-041>047-012300-
NORTHWEST KANSAS

CITY           SKY/WX    TMP DP  RH WIND       PRES   REMARKS
GOODLAND       CLOUDY    50  31  48 N18       30.20F
HAYS           CLOUDY    48  34  57 N15       30.17S
HILL CITY      CLOUDY    52  39  61 N17       30.18F
RUSSELL        CLOUDY    50  41  71 N15       30.15R
$$

KSZ061>065-074>080-084>089-012300-
SOUTHWEST KANSAS

CITY           SKY/WX    TMP DP  RH WIND       PRES   REMARKS
DODGE CITY     CLOUDY    46  39  76 N14       30.17F
ELKHART          N/A     43  35  73 N12         N/A
GARDEN CITY    CLOUDY    45  37  73 N12       30.18F
GREAT BEND     CLOUDY    48  37  66 N13       30.17S
LIBERAL        CLOUDY    45  37  76 N14       30.19F
PRATT          CLOUDY    47  37  69 N14       30.16R
$$

KSZ066>073-081>083-090>101-012300-
SOUTHEAST KANSAS

CITY           SKY/WX    TMP DP  RH WIND       PRES   REMARKS
CHANUTE        CLOUDY    61  46  57 NW10      30.04F
COFFEYVILLE    CLOUDY    62  46  55 NW13      30.06R
HUTCHINSON     CLOUDY    52  41  66 N10       30.13F
MEDICINE LODGE   N/A     52  41  66 N14       30.13F
NEWTON         CLOUDY    52  39  62 N15G21    30.12F
PARSONS        CLOUDY    60  47  61 NW9       30.06S
WICHITA INTL   CLOUDY    54  42  64 N15       30.12R
WICHITA JABRA  CLOUDY    53  43  68 NW13      30.11R
WICHITA MCCONL CLOUDY    52  42  69 N10       30.11R
WINFIELD       CLOUDY    55  44  66 N9        30.10F
$$

KSZ007>012-019>026-033>040-048>060-102>105-012300-
NORTHEAST KANSAS

CITY           SKY/WX    TMP DP  RH WIND       PRES   REMARKS
CONCORDIA      CLOUDY    48  39  71 N14       30.14S
EMPORIA        CLOUDY    56  47  71 NW14G22   30.07R
LAWRENCE       CLOUDY    58  47  66 NW16      30.06R
MANHATTAN      CLOUDY    52  42  69 N9        30.12R
MARYSVILLE     CLOUDY    48  43  81 N15       30.11R
OLATHE IND     CLOUDY    56  48  74 N12       30.05S
OLATHE EXE     CLOUDY    57  45  64 N9        30.05R
SALINA         CLOUDY    53  42  66 N16       30.14S
TOPEKA BILLARD CLOUDY    55  46  71 NW9       30.08R
TOPEKA FORBES  PTSUNNY   60  47  61 N18       30.07R
$$




USA.gov is the U.S. government's official web portal to all federal, state and local government web resources and services.